Location: Rounton
(54.4000°N, 1.3500°W)
Time: 21:40:42
(UTC+01:00)

YAOGAN 20A - Pass Details

Date: 02 July 2022
Orbit: 891 x 1288 km, 63.4° (Epoch: 18 August)

Event Time Altitude Azimuth Distance (km) Brightness Sun altitude
Rises 03:38:41 0° 307° (NW) 3,923 8.1 -6.2°
Reaches altitude 10° 03:42:30 10° 287° (WNW) 3,040 7.3 -5.9°
Maximum altitude 03:46:30 16° 253° (WSW) 2,695 6.8 -5.5°
Drops below altitude 10° 03:50:40 10° 219° (SW) 3,175 6.9 -5.2°
Enters shadow 03:52:42 - 208° (SSW) 3,634 7.2 -5.0°
